GW5911 Weather Reports


time (UTC)temp
C
wind
direction
speed
KPH
gust
KPH
rain 1hr
cm
rain 24hr
cm
rain mn
cm
humidity
%
barometer
mb
20260906220515 32 104 6.4 14.5 0.00 0.00 0.00 31 1015.0
20260906220023 32 84 8.0 14.5 0.00 0.00 0.00 32 1015.1
20260906215512 32 123 4.8 24.1 0.00 0.00 0.00 31 1015.1
20260906215023 32 111 8.0 24.1 0.00 0.00 0.00 30 1015.3
20260906214511 32 105 9.7 20.9 0.00 0.00 0.00 31 1015.3
20260906214022 32 120 8.0 20.9 0.00 0.00 0.00 30 1015.4
20260906213530 32 120 8.0 17.7 0.00 0.00 0.00 30 1015.5
20260906213024 32 164 8.0 17.7 0.00 0.00 0.00 29 1015.5
20260906212513 32 17 6.4 16.1 0.00 0.00 0.00 29 1015.6
20260906212021 32 27 8.0 14.5 0.00 0.00 0.00 29 1015.7
20260906211529 32 55 3.2 8.0 0.00 0.00 0.00 29 1015.8
20260906211020 32 127 3.2 17.7 0.00 0.00 0.00 30 1015.9
20260906210529 32 102 6.4 19.3 0.00 0.00 0.00 31 1016.0
20260906210018 32 63 9.7 16.1 0.00 0.00 0.00 32 1016.1
20260906205526 32 73 8.0 14.5 0.00 0.00 0.00 31 1016.2
20260906205015 32 50 4.8 9.7 0.00 0.00 0.00 30 1016.2
20260906204524 32 116 6.4 14.5 0.00 0.00 0.00 30 1016.4
20260906204017 32 327 6.4 14.5 0.00 0.00 0.00 32 1016.5
20260906203525 31 154 6.4 12.9 0.00 0.00 0.00 32 1016.5
20260906203034 31 16 4.8 14.5 0.00 0.00 0.00 33 1016.5
20260906202522 31 310 4.8 14.5 0.00 0.00 0.00 33 1016.6
20260906202030 31 80 4.8 16.1 0.00 0.00 0.00 33 1016.7
20260906201521 31 354 9.7 19.3 0.00 0.00 0.00 33 1016.7
20260906201030 31 117 4.8 16.1 0.00 0.00 0.00 33 1016.8
20260906200520 31 24 4.8 16.1 0.00 0.00 0.00 34 1016.9
20260906200028 31 39 8.0 16.1 0.00 0.00 0.00 34 1017.0
20260906195537 31 14 8.0 14.5 0.00 0.00 0.00 34 1017.2
20260906195045 31 55 6.4 9.7 0.00 0.00 0.00 34 1017.1
20260906194516 30 327 3.2 9.7 0.00 0.00 0.00 34 1017.1
20260906194025 30 29 4.8 16.1 0.00 0.00 0.00 34 1017.2
20260906193514 30 94 6.4 16.1 0.00 0.00 0.00 35 1017.3
20260906193023 30 359 3.2 12.9 0.00 0.00 0.00 35 1017.4
20260906192512 30 359 3.2 12.9 0.00 0.00 0.00 35 1017.4
20260906192023 30 73 6.4 12.9 0.00 0.00 0.00 35 1017.6
20260906191530 30 318 6.4 14.5 0.00 0.00 0.00 36 1017.6
20260906191021 29 95 1.6 9.7 0.00 0.00 0.00 36 1017.7
20260906190514 29 345 6.4 12.9 0.00 0.00 0.00 36 1017.8
20260906190046 29 66 4.8 14.5 0.00 0.00 0.00 37 1017.8
20260906185513 29 72 6.4 14.5 0.00 0.00 0.00 37 1017.9
20260906185022 28 46 3.2 11.3 0.00 0.00 0.00 39 1018.1
20260906184529 28 94 4.8 16.1 0.00 0.00 0.00 39 1018.0
20260906184039 28 95 8.0 16.1 0.00 0.00 0.00 40 1018.2
20260906183526 28 285 1.6 16.1 0.00 0.00 0.00 41 1018.2
20260906183036 28 337 6.4 16.1 0.00 0.00 0.00 42 1018.5
20260906182543 28 359 3.2 9.7 0.00 0.00 0.00 42 1018.5
20260906182031 28 335 4.8 9.7 0.00 0.00 0.00 42 1018.6
20260906181522 28 328 4.8 9.7 0.00 0.00 0.00 42 1018.6
20260906181050 27 48 4.8 11.3 0.00 0.00 0.00 42 1018.8
20260906180520 27 4 1.6 6.4 0.00 0.00 0.00 42 1018.9
20260906180012 27 11 4.8 9.7 0.00 0.00 0.00 42 1019.1
20260906175543 27 18 3.2 11.3 0.00 0.00 0.00 43 1019.2
20260906175011 27 89 1.6 8.0 0.00 0.00 0.00 43 1019.3
20260906174540 27 359 3.2 11.3 0.00 0.00 0.00 43 1019.4
20260906174028 27 103 4.8 9.7 0.00 0.00 0.00 44 1019.5
20260906173516 27 65 4.8 11.3 0.00 0.00 0.00 45 1019.7
20260906173026 27 304 3.2 8.0 0.00 0.00 0.00 44 1019.7
20260906172514 27 343 4.8 8.0 0.00 0.00 0.00 45 1019.9
20260906172023 26 354 3.2 6.4 0.00 0.00 0.00 45 1020.0
20260906171512 26 114 3.2 11.3 0.00 0.00 0.00 46 1020.1
20260906171023 26 75 6.4 11.3 0.00 0.00 0.00 46 1020.2
20260906170515 26 79 1.6 6.4 0.00 0.00 0.00 48 1020.3
20260906170024 26 150 4.8 8.0 0.00 0.00 0.00 48 1020.4
20260906165533 25 291 4.8 8.0 0.00 0.00 0.00 49 1020.5
20260906165020 25 314 3.2 6.4 0.00 0.00 0.00 49 1020.6
20260906164528 25 301 1.6 6.4 0.00 0.00 0.00 49 1020.6
20260906164039 25 62 3.2 6.4 0.00 0.00 0.00 50 1020.5
20260906163547 25 62 3.2 8.0 0.00 0.00 0.00 50 1020.5
20260906163015 25 114 3.2 8.0 0.00 0.00 0.00 51 1020.6
20260906162524 25 102 4.8 9.7 0.00 0.00 0.00 51 1020.6
20260906162032 24 99 3.2 6.4 0.00 0.00 0.00 53 1020.6
20260906161522 24 330 1.6 8.0 0.00 0.00 0.00 54 1020.6
20260906161014 24 326 1.6 8.0 0.00 0.00 0.00 54 1020.6
20260906160524 24 114 1.6 8.0 0.00 0.00 0.00 54 1020.6
20260906160013 24 58 3.2 8.0 0.00 0.00 0.00 56 1020.5
20260906155521 24 333 1.6 8.0 0.00 0.00 0.00 56 1020.6
20260906155030 24 27 3.2 12.9 0.00 0.00 0.00 55 1020.4
20260906154521 24 359 4.8 12.9 0.00 0.00 0.00 56 1020.5
20260906154029 24 4 1.6 3.2 0.00 0.00 0.00 57 1020.6
20260906153519 23 83 1.6 4.8 0.00 0.00 0.00 57 1020.7
20260906153029 23 83 1.6 4.8 0.00 0.00 0.00 58 1020.7
20260906152523 23 20 1.6 4.8 0.00 0.00 0.00 58 1020.8
20260906152012 23 25 3.2 4.8 0.00 0.00 0.00 59 1020.7
20260906151523 23 37 3.2 4.8 0.00 0.00 0.00 60 1020.7
20260906151031 22 56 0.0 4.8 0.00 0.00 0.00 62 1020.8
20260906150521 22 56 1.6 4.8 0.00 0.00 0.00 63 1020.8
20260906150031 21 77 0.0 8.0 0.00 0.00 0.00 64 1020.7
20260906145521 21 354 4.8 9.7 0.00 0.00 0.00 63 1020.8
20260906145029 22 295 4.8 9.7 0.00 0.00 0.00 63 1020.8
20260906144518 21 306 1.6 4.8 0.00 0.00 0.00 64 1020.7
20260906144031 21 324 1.6 8.0 0.00 0.00 0.00 64 1020.6
20260906143520 21 231 4.8 8.0 0.00 0.00 0.00 64 1020.8
20260906143050 21 293 1.6 8.0 0.00 0.00 0.00 64 1020.7
20260906142537 21 238 6.4 8.0 0.00 0.00 0.00 64 1020.8
20260906142024 21 269 3.2 6.4 0.00 0.00 0.00 65 1020.8
20260906141532 21 220 1.6 4.8 0.00 0.00 0.00 65 1020.8
20260906141022 20 270 1.6 8.0 0.00 0.00 0.00 67 1020.8
20260906140531 20 216 4.8 8.0 0.00 0.00 0.00 67 1020.7
20260906140042 20 224 3.2 8.0 0.00 0.00 0.00 69 1020.8
20260906135530 20 248 3.2 8.0 0.00 0.00 0.00 69 1020.9
20260906135040 20 232 3.2 8.0 0.00 0.00 0.00 70 1020.8
20260906134528 20 253 0.0 6.4 0.00 0.00 0.00 71 1020.8
20260906134022 20 227 1.6 6.4 0.00 0.00 0.00 72 1020.7
20260906133551 20 197 3.2 6.4 0.00 0.00 0.00 72 1020.7
20260906133019 20 243 0.0 3.2 0.00 0.00 0.00 73 1020.7
20260906132528 19 297 0.0 3.2 0.00 0.00 0.00 74 1020.6
20260906132037 19 122 1.6 3.2 0.00 0.00 0.00 74 1020.5
20260906131525 19 335 1.6 3.2 0.00 0.00 0.00 74 1020.5
20260906131052 18 328 0.0 0.0 0.00 0.00 0.00 75 1020.4
20260906130541 18 328 0.0 3.2 0.00 0.00 0.00 76 1020.3
20260906130050 18 328 0.0 3.2 0.00 0.00 0.00 76 1020.2
20260906125519 18 328 1.6 3.2 0.00 0.00 0.00 75 1020.2
20260906125028 18 345 0.0 4.8 0.00 0.00 0.00 75 1020.1
20260906124517 18 345 0.0 4.8 0.00 0.00 0.00 75 1020.1
20260906124025 18 347 1.6 12.9 0.00 0.00 0.00 75 1020.0
20260906123517 18 343 4.8 12.9 0.00 0.00 0.00 75 1020.1
20260906123026 18 324 3.2 6.4 0.00 0.00 0.00 74 1020.2
20260906122534 18 326 1.6 4.8 0.00 0.00 0.00 74 1020.2
20260906122022 18 335 1.6 8.0 0.00 0.00 0.00 74 1020.3
20260906121530 18 280 4.8 8.0 0.00 0.00 0.00 74 1020.2
20260906121018 18 321 3.2 8.0 0.00 0.00 0.00 74 1020.2
20260906120526 18 354 1.6 6.4 0.00 0.00 0.00 74 1020.2
20260906120014 18 354 3.2 4.8 0.00 0.00 0.00 73 1020.3
20260906115522 18 324 1.6 9.7 0.00 0.00 0.00 73 1020.2
20260906115031 18 347 3.2 9.7 0.00 0.00 0.00 73 1020.2
20260906114526 18 331 1.6 6.4 0.00 0.00 0.00 72 1020.2
20260906114015 19 289 0.0 8.0 0.00 0.00 0.00 71 1020.2
20260906113522 19 322 1.6 6.4 0.00 0.00 0.00 70 1020.2
20260906113031 19 349 0.0 0.0 0.00 0.00 0.00 68 1020.1
20260906112521 19 349 0.0 4.8 0.00 0.00 0.00 68 1020.0
20260906112030 19 332 1.6 4.8 0.00 0.00 0.00 68 1020.1
20260906111521 19 359 0.0 4.8 0.00 0.00 0.00 67 1019.9
20260906111029 19 339 0.0 4.8 0.00 0.00 0.00 65 1019.9
20260906110518 19 314 1.6 6.4 0.00 0.00 0.00 65 1019.9
20260906110024 20 315 3.2 6.4 0.00 0.00 0.00 64 1019.8
20260906105517 20 316 1.6 6.4 0.00 0.00 0.00 62 1019.5
20260906105025 20 339 1.6 9.7 0.00 0.00 0.00 60 1019.5
20260906104533 20 337 1.6 9.7 0.00 0.00 0.00 59 1019.5
20260906104022 20 327 3.2 6.4 0.00 0.00 0.00 59 1019.4
20260906103531 20 264 0.0 0.0 0.00 0.00 0.00 60 1019.4
20260906103022 20 354 0.0 8.0 0.00 0.00 0.00 61 1019.4
20260906102531 20 27 4.8 9.7 0.00 0.00 0.00 61 1019.3
20260906102022 20 345 3.2 9.7 0.00 0.00 0.00 61 1019.2
20260906101529 19 359 3.2 9.7 0.00 0.00 0.00 60 1019.2
20260906101024 19 29 0.0 1.6 0.00 0.00 0.00 58 1019.1
20260906100512 19 330 0.0 1.6 0.00 0.00 0.00 58 1019.3
20260906100021 19 330 0.0 1.6 0.00 0.00 0.00 58 1019.2
20260906095529 19 84 0.0 0.0 0.00 0.00 0.00 58 1019.3
20260906095019 20 84 0.0 0.0 0.00 0.00 0.00 57 1019.4
20260906094528 20 84 0.0 0.0 0.00 0.00 0.00 57 1019.3
20260906094016 20 84 0.0 1.6 0.00 0.00 0.00 56 1019.3
20260906093523 20 84 0.0 1.6 0.00 0.00 0.00 57 1019.4
20260906093013 20 84 0.0 3.2 0.00 0.00 0.00 57 1019.4
20260906092527 20 84 1.6 3.2 0.00 0.00 0.00 58 1019.4
20260906092015 20 66 0.0 0.0 0.00 0.00 0.00 57 1019.2
20260906091523 20 66 0.0 1.6 0.00 0.00 0.00 57 1019.2
20260906091030 20 66 0.0 1.6 0.00 0.00 0.00 57 1019.2
20260906090518 20 66 0.0 1.6 0.00 0.00 0.00 57 1019.2
20260906090027 20 66 0.0 1.6 0.00 0.00 0.00 57 1019.1
20260906085516 20 24 0.0 0.0 0.00 0.00 0.00 56 1019.0
20260906085024 20 24 0.0 1.6 0.00 0.00 0.00 55 1019.0
20260906084512 20 24 0.0 3.2 0.00 0.00 0.00 55 1019.0
20260906084026 21 56 1.6 3.2 0.00 0.00 0.00 55 1019.0
20260906083514 21 116 0.0 0.0 0.00 0.00 0.00 54 1018.9
20260906083022 21 116 0.0 1.6 0.00 0.00 0.00 54 1018.9
20260906082529 21 116 0.0 3.2 0.00 0.00 0.00 53 1019.0
20260906082017 21 116 0.0 4.8 0.00 0.00 0.00 51 1019.2
20260906081525 22 138 1.6 6.4 0.00 0.00 0.00 51 1019.1
20260906081033 22 161 1.6 6.4 0.00 0.00 0.00 51 1019.1
20260906080522 22 176 1.6 3.2 0.00 0.00 0.00 50 1019.0
20260906080031 22 191 1.6 3.2 0.00 0.00 0.00 50 1019.1
20260906075522 22 159 0.0 4.8 0.00 0.00 0.00 49 1019.0
20260906075014 22 213 1.6 4.8 0.00 0.00 0.00 48 1018.9
20260906074545 22 206 3.2 4.8 0.00 0.00 0.00 48 1018.8
20260906074012 22 148 0.0 1.6 0.00 0.00 0.00 47 1018.8
20260906073519 22 134 0.0 1.6 0.00 0.00 0.00 46 1018.7
20260906073049 23 134 0.0 4.8 0.00 0.00 0.00 46 1018.8
20260906072515 23 233 1.6 6.4 0.00 0.00 0.00 46 1018.7
20260906072023 23 218 1.6 8.0 0.00 0.00 0.00 45 1018.7
20260906071512 23 235 1.6 9.7 0.00 0.00 0.00 45 1018.6
20260906071022 23 213 4.8 9.7 0.00 0.00 0.00 45 1018.6
20260906070529 23 146 3.2 4.8 0.00 0.00 0.00 45 1018.5
20260906070021 23 114 1.6 8.0 0.00 0.00 0.00 45 1018.4
20260906065514 23 324 1.6 8.0 0.00 0.00 0.00 45 1018.3
20260906065024 23 210 0.0 3.2 0.00 0.00 0.00 44 1018.5
20260906064513 23 210 0.0 8.0 0.00 0.00 0.00 43 1018.6
20260906064041 23 206 1.6 8.0 0.00 0.00 0.00 43 1018.6
20260906063529 24 214 4.8 8.0 0.00 0.00 0.00 43 1018.8
20260906063020 24 221 6.4 8.0 0.00 0.00 0.00 42 1018.8
20260906062529 24 216 3.2 8.0 0.00 0.00 0.00 41 1018.9
20260906062017 24 205 3.2 8.0 0.00 0.00 0.00 41 1019.0
20260906061526 24 229 6.4 8.0 0.00 0.00 0.00 41 1019.0
20260906061015 25 207 1.6 4.8 0.00 0.00 0.00 41 1019.1
20260906060526 25 108 1.6 4.8 0.00 0.00 0.00 40 1019.1
20260906060034 25 96 0.0 3.2 0.00 0.00 0.00 40 1019.2
20260906055521 25 289 0.0 8.0 0.00 0.00 0.00 39 1019.1
20260906055030 25 191 1.6 12.9 0.00 0.00 0.00 39 1019.2
20260906054520 25 212 4.8 12.9 0.00 0.00 0.00 38 1019.2
20260906054029 25 229 3.2 6.4 0.00 0.00 0.00 38 1019.2
20260906053519 25 208 1.6 4.8 0.00 0.00 0.00 37 1019.3
20260906053028 25 75 1.6 4.8 0.00 0.00 0.00 36 1019.3
20260906052517 25 321 1.6 6.4 0.00 0.00 0.00 35 1019.3
20260906052025 25 4 3.2 6.4 0.00 0.00 0.00 35 1019.2
20260906051517 25 287 0.0 6.4 0.00 0.00 0.00 35 1019.3
20260906051045 25 39 0.0 6.4 0.00 0.00 0.00 35 1019.4
20260906050513 25 221 1.6 4.8 0.00 0.00 0.00 35 1019.5
20260906050022 25 335 0.0 4.8 0.00 0.00 0.00 35 1019.5
20260906045530 25 335 1.6 4.8 0.00 0.00 0.00 35 1019.6
20260906045021 25 259 1.6 3.2 0.00 0.00 0.00 36 1019.5
20260906044529 25 259 1.6 3.2 0.00 0.00 0.00 36 1019.5
20260906044019 25 359 0.0 0.0 0.00 0.00 0.00 36 1019.6
20260906043528 25 359 0.0 3.2 0.00 0.00 0.00 35 1019.5
20260906043021 25 359 0.0 4.8 0.00 0.00 0.00 36 1019.4
20260906042529 25 249 0.0 6.4 0.00 0.00 0.00 35 1019.3
20260906042038 25 179 1.6 9.7 0.00 0.00 0.00 36 1019.5
20260906041525 25 116 4.8 14.5 0.00 0.00 0.00 36 1019.4
20260906041014 25 223 3.2 4.8 0.00 0.00 0.00 37 1019.0
20260906040523 25 95 1.6 8.0 0.00 0.00 0.00 36 1018.7
20260906040012 25 8 3.2 8.0 0.00 0.00 0.00 36 1018.5
20260906035522 25 60 4.8 8.0 0.00 0.00 0.00 37 1018.3
20260906035051 25 44 3.2 4.8 0.00 0.00 0.00 37 1018.3
20260906034520 25 56 0.0 1.6 0.00 0.00 0.00 38 1018.2
20260906034013 25 56 0.0 1.6 0.00 0.00 0.00 37 1018.2
20260906033522 25 56 0.0 0.0 0.00 0.00 0.00 37 1018.2
20260906033012 25 56 0.0 1.6 0.00 0.00 0.00 36 1018.1
20260906032520 25 56 0.0 1.6 0.00 0.00 0.00 35 1018.3
20260906032029 25 56 0.0 1.6 0.00 0.00 0.00 35 1018.2
20260906031519 26 56 1.6 1.6 0.00 0.00 0.00 34 1018.1
20260906031047 26 56 0.0 3.2 0.00 0.00 0.00 33 1018.1
20260906030515 26 38 1.6 3.2 0.00 0.00 0.00 33 1018.0
20260906030045 27 30 1.6 4.8 0.00 0.00 0.00 32 1017.8
20260906025512 27 95 1.6 4.8 0.00 0.00 0.00 31 1017.6
20260906025024 27 91 1.6 4.8 0.00 0.00 0.00 30 1017.6
20260906024516 27 107 3.2 4.8 0.00 0.00 0.00 30 1017.5
20260906024045 27 55 0.0 4.8 0.00 0.00 0.00 29 1017.4
20260906023531 28 4 1.6 8.0 0.00 0.00 0.00 29 1017.4
20260906023020 28 40 1.6 8.0 0.00 0.00 0.00 29 1017.3
20260906022529 28 16 1.6 6.4 0.00 0.00 0.00 28 1017.4
20260906022018 28 330 1.6 6.4 0.00 0.00 0.00 28 1017.3
20260906021526 28 29 1.6 6.4 0.00 0.00 0.00 28 1017.2
20260906021015 28 344 3.2 8.0 0.00 0.00 0.00 27 1017.2
20260906020523 29 354 1.6 8.0 0.00 0.00 0.00 27 1017.1
20260906020012 29 344 3.2 8.0 0.00 0.00 0.00 27 1017.1
20260906015527 29 331 3.2 14.5 0.00 0.00 0.00 26 1017.0
20260906015016 29 308 4.8 16.1 0.00 0.00 0.00 26 1016.9
20260906014544 30 346 3.2 12.9 0.00 0.00 0.00 26 1016.9
20260906014012 30 328 4.8 19.3 0.00 0.00 0.00 25 1016.7
20260906013543 30 311 6.4 19.3 0.00 0.00 0.00 25 1016.8
20260906013030 30 306 8.0 20.9 0.00 0.00 0.00 25 1016.7
20260906012518 30 329 8.0 22.5 0.00 0.00 0.00 24 1016.7
20260906012026 31 350 9.7 16.1 0.00 0.00 0.00 23 1016.6
20260906011515 31 52 4.8 14.5 0.00 0.00 0.00 23 1016.4
20260906011023 31 335 9.7 14.5 0.00 0.00 0.00 22 1016.5
20260906010516 31 341 6.4 12.9 0.00 0.00 0.00 22 1016.5
20260906010026 31 350 6.4 9.7 0.00 0.00 0.00 23 1016.4
20260906005514 31 341 3.2 4.8 0.00 0.00 0.00 22 1016.5
20260906005023 31 4 1.6 4.8 0.00 0.00 0.00 22 1016.5
20260906004511 31 333 1.6 6.4 0.00 0.00 0.00 22 1016.5
20260906004022 31 268 0.0 6.4 0.00 0.00 0.00 22 1016.5
20260906003530 31 339 0.0 6.4 0.00 0.00 0.00 22 1016.6
20260906003021 31 326 0.0 1.6 0.00 0.00 0.00 22 1016.5
20260906002530 31 343 0.0 6.4 0.00 0.00 0.00 22 1016.5
20260906002021 31 342 1.6 6.4 0.00 0.00 0.00 22 1016.4
20260906001513 31 329 1.6 6.4 0.00 0.00 0.00 22 1016.5
20260906001021 31 312 1.6 6.4 0.00 0.00 0.00 22 1016.4
20260906000530 31 342 0.0 4.8 0.00 0.00 0.00 22 1016.4
20260906000020 32 45 1.6 9.7 0.00 0.00 0.00 21 1016.5
20260905235530 32 341 4.8 9.7 0.00 0.00 0.00 21 1016.4
20260905235021 32 10 1.6 8.0 0.00 0.00 0.00 21 1016.4
20260905234529 32 332 4.8 9.7 0.00 0.00 0.00 21 1016.4
20260905234019 32 22 4.8 11.3 0.00 0.00 0.00 20 1016.4
20260905233511 32 77 0.0 8.0 0.00 0.00 0.00 20 1016.4
20260905233040 32 60 3.2 9.7 0.00 0.00 0.00 20 1016.4
20260905232528 32 79 4.8 11.3 0.00 0.00 0.00 20 1016.3
20260905232017 32 119 1.6 4.8 0.00 0.00 0.00 20 1016.4
20260905231524 32 345 0.0 8.0 0.00 0.00 0.00 20 1016.3
20260905231011 32 338 1.6 8.0 0.00 0.00 0.00 20 1016.4
20260905230522 32 37 4.8 8.0 0.00 0.00 0.00 21 1016.4
20260905230051 32 33 0.0 3.2 0.00 0.00 0.00 21 1016.4
20260905225521 32 25 0.0 8.0 0.00 0.00 0.00 21 1016.2
20260905225030 32 25 4.8 9.7 0.00 0.00 0.00 21 1016.4
20260905224518 32 59 3.2 11.3 0.00 0.00 0.00 21 1016.3
20260905224026 32 103 0.0 1.6 0.00 0.00 0.00 21 1016.2
20260905223518 32 342 0.0 3.2 0.00 0.00 0.00 21 1016.3
20260905223047 32 354 0.0 8.0 0.00 0.00 0.00 21 1016.3
20260905222514 32 75 3.2 8.0 0.00 0.00 0.00 21 1016.4
20260905222022 32 359 1.6 12.9 0.00 0.00 0.00 21 1016.4
20260905221531 32 18 3.2 12.9 0.00 0.00 0.00 21 1016.5
20260905221021 32 15 4.8 12.9 0.00 0.00 0.00 21 1016.5